Zurück zum Katalog

TIANQI 39

AktivKommunikationLEO
NORAD 67478·PAYLOAD·🇨🇳 China

Gestartet Jan 15, 2026 von Yellow Sea Launch Area

Loading…

Nächste Überflüge (nächste 24 Stunden)

TLE

AktuellSource: Space-Track

Epoche: Sep 14, 2026, 19:45 UTC

1 67478U 26010C   26257.82344245 -.00000008  00000-0  82989-4 0  9994
2 67478  44.9805  38.8111 0012974  55.7721 304.4339 13.99235633 34003

Verfolge TIANQI 39 in Echtzeit mit AllMySat

Download on the App Store